Location: Ciserano
(45.5833°N, 9.6000°E)
Time: 03:36:38
(UTC+00:00)

USA 308 - Pass Details

Date: 29 November 2020
Orbit: 567 x 580 km, 54.0° (Epoch: 22 January)

Event Time Altitude Azimuth Distance (km) Brightness Sun altitude
Exits shadow 05:13:17 18° 324° (NW) 1,421 4.5 -14.7°
Maximum altitude 05:15:33 29° 11° (NNE) 1,065 4.2 -14.3°
Drops below altitude 10° 05:19:20 10° 73° (ENE) 1,887 6.4 -13.6°
Sets 05:21:50 0° 85° (E) 2,787 7.8 -13.2°
